Hourly Data Report for October 10, 2015

All times are specified in Local Standard Time (LST). Add 1 hour to adjust for Daylight Saving Time where and when it is observed.

MONCTON INTL A
NEW BRUNSWICK

46°06'44.000" N
64°40'43.000" W
70.70 m
8103201
71705
YQM

Download Data

Hourly Data (October 2015)
Hourly Data Report for October 10, 2015
Temp Definition
°C
Dew Point Temp Definition
°C
Rel Hum Definition
%
Wind Dir Definition
10's deg

Wind Spd Definition
km/h
Visibility Definition
km
Stn Press Definition
kPa
Hmdx Definition


Wind Chill Definition


Weather Definition


TIME
00:00 Legend Double Dagger 9.8 8.7 93 17 22 12.9 99.30     Rain
01:00 Legend Double Dagger 10.0 9.1 94 17 15 16.1 99.17     Rain
02:00 Legend Double Dagger 10.3 9.5 95 20 13 12.9 99.12     Drizzle
03:00 Legend Double Dagger 10.6 10.0 96 26 22 4.0 99.10     Drizzle,Fog
04:00 Legend Double Dagger 8.5 6.6 88 29 35 16.1 99.24     Rain Showers
05:00 Legend Double Dagger 6.9 4.9 87 29 30 24.1 99.38     Cloudy
06:00 Legend Double Dagger 5.3 2.5 82 28 29 24.1 99.60     LegendNANA
07:00 Legend Double Dagger 4.0 1.4 83 28 28 24.1 99.69     LegendNANA
08:00 Legend Double Dagger 4.9 1.6 79 28 27 24.1 99.81     Mainly Clear
09:00 Legend Double Dagger 5.8 1.0 71 29 37 24.1 99.92     LegendNANA
10:00 Legend Double Dagger 6.8 -0.2 61 29 38 24.1 99.97     LegendNANA
11:00 Legend Double Dagger 7.8 -1.7 51 28 42 24.1 100.14     Mainly Clear
12:00 Legend Double Dagger 8.0 -2.1 49 28 26 24.1 100.26     LegendNANA
13:00 Legend Double Dagger 8.0 -3.8 43 28 27 24.1 100.30     LegendNANA
14:00 Legend Double Dagger 8.6 -6.0 35 29 32 24.1 100.27     Mainly Clear
15:00 Legend Double Dagger 9.0 -7.2 31 29 37 24.1 100.30     LegendNANA
16:00 Legend Double Dagger 8.4 -7.0 33 28 23 24.1 100.31     LegendNANA
17:00 Legend Double Dagger 7.3 -6.8 36 29 18 24.1 100.36     Mainly Clear
18:00 Legend Double Dagger 5.1 -5.3 47 25 15 24.1 100.43     LegendNANA
19:00 Legend Double Dagger 3.0 -4.0 60 22 15 24.1 100.52     LegendNANA
20:00 Legend Double Dagger 2.4 -3.7 64 24 14 24.1 100.59     Mainly Clear
21:00 Legend Double Dagger 1.6 -3.5 69 23 14 24.1 100.60     LegendNANA
22:00 Legend Double Dagger 1.0 -3.9 70 26 11 24.1 100.60     LegendNANA
23:00 Legend Double Dagger 0.5 -3.4 75 23 9 24.1 100.58     Mainly Clear

Notes on Data Quality.

Legend

  • E = Estimated
  • M = Missing
  • NA = Not Available
  • ‡ = Partner data that is not subject to review by the National Climate Archives
Date modified: